Location: Leverkusen
(51.0459°N, 7.0192°E)
Time: 11:31:51
(UTC+02:00)

ISS - Pass Details

Date: 28 January 2019
Orbit: 411 x 421 km, 51.6° (Epoch: 16 October)

Event Time Altitude Azimuth Distance (km) Brightness Sun altitude
Rises 19:04:50 0° 256° (WSW) 2,369 1.8 -17.1°
Reaches altitude 10° 19:06:56 10° 256° (WSW) 1,507 0.4 -17.4°
Maximum altitude 19:10:19 87° 172° (S) 428 -3.8 -17.9°
Enters shadow 19:10:53 59° 83° (E) 492 -3.8 -18.0°
